Acchabamba, Peru

4:16 AM -05 on May 23, 2017 (GMT -0500)
Acchabamba

Weather History for 84686 - December, 2013

Change the Weather History Date:

Thursday, December 26, 2013

  Actual Average Record
Temperature  
Mean Temperature 58 °F -  
Max Temperature 67 °F 66 °F - ()
Min Temperature 50 °F 44 °F - ()
Degree Days  
Heating Degree Days 6    
Growing Degree Days 8 (Base 50)    
Moisture  
Dew Point 43 °F    
Average Humidity 56    
Maximum Humidity 82    
Minimum Humidity 32    
Precipitation  
Precipitation 0.00 in 0.20 in - ()
Sea Level Pressure  
Sea Level Pressure 30.42 in    
Wind  
Wind Speed 3 mph ()    
Max Wind Speed 10 mph    
Max Gust Speed -    
Visibility 6.3 miles    
Events      
T = Trace of Precipitation, MM = Missing Value Source: Averaged Metar Reports

Daily Weather History Graph

Daily Weather History Graph

Search for Another Location

Airport or City:

Trip Planner

Search our weather history database for the weather conditions in past years. The results will help you decide how hot, cold, wet, or windy it might be!

Date:

Astronomy

Dec. 26, 2013 Rise Set
Actual Time 5:20 AM -05 6:16 PM -05
Civil Twilight 4:57 AM -05 6:39 PM -05
Nautical Twilight 4:29 AM -05 7:07 PM -05
Astronomical Twilight 4:01 AM -05 7:35 PM -05
Moon 12:03 AM -05 (12/26) 12:41 PM -05 (12/26)
Length of Visible Light 13h 42m
Length of Day
12h 55m
Last Quarter, 38% of the Moon is Illuminated
Dec 26
Last Quarter
Jan 1
New
Jan 7
First Quarter
Jan 15
Full
Jan 24
Last Quarter

Hourly Weather History & Observations

Time (-05) Temp. Dew Point Humidity Pressure Visibility Wind Dir Wind Speed Gust Speed Precip Events Conditions
12:00 AM 51.8 °F 44.6 °F 76% 30.45 in 6.2 mi Calm Calm - N/A   Mostly Cloudy
1:00 AM 52 °F 43 °F 63%  in 6 mi Calm Calm - -   Partly Cloudy
1:00 AM 51.8 °F 42.8 °F 71% 30.42 in 6.2 mi Calm Calm - N/A   Mostly Cloudy
2:00 AM 51.8 °F 44.6 °F 76% 30.42 in 6.2 mi SW 3.5 mph - N/A   Light Drizzle
3:00 AM 50.0 °F 44.6 °F 82% 30.39 in 6.2 mi Calm Calm - N/A   Mostly Cloudy
4:00 AM 50.0 °F 44.6 °F 82% 30.42 in 6.2 mi Variable 3.5 mph - N/A   Mostly Cloudy
5:00 AM 50.0 °F 44.6 °F 82% 30.42 in 6.2 mi Variable 1.2 mph - N/A   Mostly Cloudy
5:30 AM 50.0 °F 44.6 °F 82% 30.45 in 6.2 mi Variable 2.3 mph - N/A   Mostly Cloudy
6:00 AM 50.0 °F 44.6 °F 82% 30.45 in 6.2 mi Calm Calm - N/A   Mostly Cloudy
6:30 AM 53.6 °F 44.6 °F 72% 30.48 in 6.2 mi Calm Calm - N/A   Mostly Cloudy
7:00 AM 55.4 °F 44.6 °F 67% 30.48 in 6.2 mi Calm Calm - N/A   Mostly Cloudy
7:30 AM 57.2 °F 41.0 °F 55% 30.48 in 6.2 mi Variable 3.5 mph - N/A   Mostly Cloudy
8:00 AM 55.4 °F 41.0 °F 58% 30.48 in 6.2 mi Variable 2.3 mph - N/A   Mostly Cloudy
8:30 AM 57.2 °F 41.0 °F 55% 30.51 in 6.2 mi Variable 2.3 mph - N/A   Mostly Cloudy
9:00 AM 57.2 °F 41.0 °F 55% 30.51 in 6.2 mi Variable 2.3 mph - N/A   Scattered Clouds
9:30 AM 64.4 °F 42.8 °F 45% 30.48 in 6.2 mi Variable 2.3 mph - N/A   Scattered Clouds
10:00 AM 63 °F 42 °F 34%  in 9 mi 3.5 mph - -   Partly Cloudy
10:00 AM 62.6 °F 41.0 °F 45% 30.48 in 6.2 mi Variable 3.5 mph - N/A   Scattered Clouds
10:30 AM 64.4 °F 42.8 °F 45% 30.48 in 6.2 mi Variable 3.5 mph - N/A   Scattered Clouds
11:00 AM 64.4 °F 44.6 °F 49% 30.45 in 6.2 mi Variable 3.5 mph - N/A   Scattered Clouds
11:30 AM 66.2 °F 41.0 °F 40% 30.42 in 6.2 mi ENE 8.1 mph - N/A   Scattered Clouds
12:00 PM 66.2 °F 41.0 °F 40% 30.42 in 6.2 mi Variable 3.5 mph - N/A   Scattered Clouds
12:32 PM 66.2 °F 41.0 °F 40% 30.39 in 6.2 mi Calm Calm - N/A   Scattered Clouds
1:00 PM 66 °F 46 °F 38%  in 6 mi West 8.1 mph - -   Partly Cloudy
1:00 PM 66.2 °F 46.4 °F 49% 30.39 in 6.2 mi West 8.1 mph - N/A   Scattered Clouds
1:36 PM 64.4 °F 39.2 °F 40% 30.36 in 6.2 mi NE 10.4 mph - N/A   Scattered Clouds
2:00 PM 62.6 °F 39.2 °F 42% 30.24 in 6.2 mi North 9.2 mph - N/A   Mostly Cloudy
3:00 PM 62.6 °F 41.0 °F 45% 30.36 in 6.2 mi North 5.8 mph - N/A   Scattered Clouds
3:30 PM 64.4 °F 39.2 °F 40% 30.33 in 6.2 mi North 10.4 mph - N/A   Scattered Clouds
4:00 PM 62 °F 40 °F 32%  in 9 mi North 9.2 mph - -   Partly Cloudy
4:00 PM 62.6 °F 39.2 °F 42% 30.33 in 6.2 mi North 9.2 mph - N/A   Scattered Clouds
4:30 PM 60.8 °F 42.8 °F 52% 30.33 in 6.2 mi WNW 6.9 mph - N/A   Mostly Cloudy
5:00 PM 60.8 °F 42.8 °F 52% 30.33 in 6.2 mi West 9.2 mph - N/A   Mostly Cloudy
5:30 PM 60.8 °F 42.8 °F 52% 30.36 in 6.2 mi WNW 4.6 mph - N/A   Mostly Cloudy
6:00 PM 60.8 °F 42.8 °F 52% 30.36 in 6.2 mi NW 4.6 mph - N/A   Mostly Cloudy
7:00 PM 58 °F 42 °F 44%  in 6 mi NNW 4.6 mph - -   Partly Cloudy
7:00 PM 59.0 °F 42.8 °F 55% 30.39 in 6.2 mi NNW 4.6 mph - N/A   Scattered Clouds
8:00 PM 53.6 °F 44.6 °F 72% 30.42 in 6.2 mi ENE 3.5 mph - N/A   Partly Cloudy
9:00 PM 55.4 °F 42.8 °F 63% 30.48 in 6.2 mi Calm Calm - N/A   Partly Cloudy
10:00 PM 54 °F 45 °F 62%  in 6 mi East 5.8 mph - -   Partly Cloudy
10:00 PM 53.6 °F 44.6 °F 72% 30.51 in 6.2 mi East 5.8 mph - N/A   Partly Cloudy
11:00 PM 53.6 °F 44.6 °F 72% 30.51 in 6.2 mi East 3.5 mph - N/A   Scattered Clouds